{"data":{"norad_id":67505,"intl_designator":"2026-012N","name":"STARLINK-36545","alt_names":[],"object_type":"PAYLOAD","status":"ACTIVE","operator":null,"country":"US","launch_date":"2026-01-18","launch_site_code":"AFETR","launch_vehicle":null,"mission":null,"orbit_class":"UNKNOWN","rcs_meters":null,"size_class":null,"mass_kg":null,"dimensions":null,"purposes":["comms"],"wikipedia_slug":null,"has_3d_model":false,"image_url":null,"decayed_at":null,"tle_current":{"epoch":"2026-09-19T10:02:02.836032Z","epoch_age_seconds":165744,"freshness":"FRESH","line1":"1 67505U 26012N   26262.41808838  .00009813  00000+0  36538-3 0  9990","line2":"2 67505  43.0018 300.0149 0001252 265.3361  94.7348 15.27604234 37395","mean_motion":15.27604234,"eccentricity":0.0001252,"inclination_deg":43.0018,"raan_deg":300.0149,"arg_perigee_deg":265.3361,"mean_anomaly_deg":94.7348,"bstar":0.00036538,"rev_number":3739,"period_min":94.265253260616,"perigee_km":482.11752027067,"apogee_km":483.835543099,"semimajor_km":6861.1135316848,"source":"CELESTRAK","updated_at":"2026-09-20T09:00:43.559374Z"}}}